LRFT Weather Reports


time (UTC)temp
C
wind
direction
speed
KPH
gust
KPH
rain 1hr
cm
rain 24hr
cm
rain mn
cm
humidity
%
barometer
mb
20260901173400 27 120 17.7 0.0 0.00 0.00 0.00 42 1015.0
20260901171900 27 120 17.7 0.0 0.00 0.00 0.00 42 1015.0
20260901170400 27 120 17.7 0.0 0.00 0.00 0.00 42 1015.0
20260901164900 31 4.8 0.0 0.00 0.00 0.00 25 1015.0
20260901163407 31 4.8 0.0 0.00 0.00 0.00 25 1015.0
20260901161859 31 4.8 0.0 0.00 0.00 0.00 25 1015.0
20260901160404 31 4.8 0.0 0.00 0.00 0.00 25 1015.0
20260901154900 32 160 14.5 0.0 0.00 0.00 0.00 24 1015.0
20260901153400 32 160 14.5 0.0 0.00 0.00 0.00 24 1015.0
20260901151859 32 160 14.5 0.0 0.00 0.00 0.00 24 1015.0
20260901150359 32 160 14.5 0.0 0.00 0.00 0.00 24 1015.0
20260901144938 31 110 14.5 0.0 0.00 0.00 0.00 25 1015.0
20260901143400 31 110 14.5 0.0 0.00 0.00 0.00 25 1015.0
20260901141923 -17 0.0 0.0 0.00 0.00 0.00
20260901140523 -17 0.0 0.0 0.00 0.00 0.00
20260901134859 31 120 14.5 0.0 0.00 0.00 0.00 25 1015.0
20260901133400 31 120 14.5 0.0 0.00 0.00 0.00 25 1015.0
20260901131909 31 120 14.5 0.0 0.00 0.00 0.00 25 1015.0
20260901130359 31 120 14.5 0.0 0.00 0.00 0.00 25 1015.0
20260901124906 31 120 17.7 0.0 0.00 0.00 0.00 27 1016.0
20260901123401 31 120 17.7 0.0 0.00 0.00 0.00 27 1016.0
20260901121859 31 120 17.7 0.0 0.00 0.00 0.00 27 1016.0
20260901120359 31 120 17.7 0.0 0.00 0.00 0.00 27 1016.0
20260901114900 30 140 17.7 0.0 0.00 0.00 0.00 29 1016.0
20260901113400 30 140 17.7 0.0 0.00 0.00 0.00 29 1016.0
20260901111900 30 140 17.7 0.0 0.00 0.00 0.00 29 1016.0
20260901110359 30 140 17.7 0.0 0.00 0.00 0.00 29 1016.0
20260901104900 27 150 14.5 0.0 0.00 0.00 0.00 37 1017.0
20260901103400 27 150 14.5 0.0 0.00 0.00 0.00 37 1017.0
20260901102004 -17 0.0 0.0 0.00 0.00 0.00
20260901100401 27 150 14.5 0.0 0.00 0.00 0.00 37 1017.0
20260901094900 27 230 14.5 0.0 0.00 0.00 0.00 37 1017.0
20260901093359 27 230 14.5 0.0 0.00 0.00 0.00 37 1017.0
20260901091859 27 230 14.5 0.0 0.00 0.00 0.00 37 1017.0
20260901090400 27 230 14.5 0.0 0.00 0.00 0.00 37 1017.0
20260901084900 26 150 14.5 0.0 0.00 0.00 0.00 48 1017.0
20260901083409 26 150 14.5 0.0 0.00 0.00 0.00 48 1017.0
20260901081859 26 150 14.5 0.0 0.00 0.00 0.00 48 1017.0
20260901080401 26 150 14.5 0.0 0.00 0.00 0.00 48 1017.0
20260901074906 22 140 11.3 0.0 0.00 0.00 0.00 73 1017.0
20260901073400 22 140 11.3 0.0 0.00 0.00 0.00 73 1017.0
20260901071856 22 140 11.3 0.0 0.00 0.00 0.00 73 1017.0
20260901070359 22 140 11.3 0.0 0.00 0.00 0.00 73 1017.0
20260901064859 18 120 11.3 0.0 0.00 0.00 0.00 83 1017.0
20260901063400 18 120 11.3 0.0 0.00 0.00 0.00 83 1017.0
20260901061900 18 120 11.3 0.0 0.00 0.00 0.00 83 1017.0
20260901060400 18 120 11.3 0.0 0.00 0.00 0.00 83 1017.0
20260901054900 13 90 11.3 0.0 0.00 0.00 0.00 100 1017.0
20260901053359 13 90 11.3 0.0 0.00 0.00 0.00 100 1017.0
20260901051900 13 90 11.3 0.0 0.00 0.00 0.00 100 1017.0
20260901050400 13 90 11.3 0.0 0.00 0.00 0.00 100 1017.0
20260901044920 11 90 11.3 0.0 0.00 0.00 0.00 100 1017.0
20260901043400 11 90 11.3 0.0 0.00 0.00 0.00 100 1017.0
20260901041856 11 90 11.3 0.0 0.00 0.00 0.00 100 1017.0
20260901040359 11 90 11.3 0.0 0.00 0.00 0.00 100 1017.0
20260901034856 11 4.8 0.0 0.00 0.00 0.00 100 1017.0
20260901033359 11 4.8 0.0 0.00 0.00 0.00 100 1017.0
20260901031850 11 4.8 0.0 0.00 0.00 0.00 100 1017.0
20260901030359 11 4.8 0.0 0.00 0.00 0.00 100 1017.0
20260901024857 16 4.8 0.0 0.00 0.00 0.00 100 1018.0
20260901023359 16 4.8 0.0 0.00 0.00 0.00 100 1018.0
20260901021857 16 4.8 0.0 0.00 0.00 0.00 100 1018.0
20260901020356 16 4.8 0.0 0.00 0.00 0.00 100 1018.0
20260901014847 -17 0.0 0.0 0.00 0.00 0.00
20260901013400 -17 0.0 0.0 0.00 0.00 0.00
20260901011901 -17 0.0 0.0 0.00 0.00 0.00
20260901010401 -17 0.0 0.0 0.00 0.00 0.00
20260901004900 -17 0.0 0.0 0.00 0.00 0.00
20260901003359 -17 0.0 0.0 0.00 0.00 0.00
20260901001853 -17 0.0 0.0 0.00 0.00 0.00
20260901000359 -17 0.0 0.0 0.00 0.00 0.00
20260831234859 17 100 9.7 0.0 0.00 0.00 0.00 88 1018.0
20260831233400 17 100 9.7 0.0 0.00 0.00 0.00 88 1018.0
20260831231900 17 100 9.7 0.0 0.00 0.00 0.00 88 1018.0
20260831230359 17 100 9.7 0.0 0.00 0.00 0.00 88 1018.0
20260831224859 17 100 9.7 0.0 0.00 0.00 0.00 88 1018.0
20260831223400 -17 0.0 0.0 0.00 0.00 0.00
20260831221900 -17 0.0 0.0 0.00 0.00 0.00
20260831220359 -17 0.0 0.0 0.00 0.00 0.00
20260831214859 18 110 12.9 0.0 0.00 0.00 0.00 73 1018.0
20260831213359 18 110 12.9 0.0 0.00 0.00 0.00 73 1018.0
20260831211859 18 110 12.9 0.0 0.00 0.00 0.00 73 1018.0
20260831210359 18 110 12.9 0.0 0.00 0.00 0.00 73 1018.0
20260831204901 18 110 12.9 0.0 0.00 0.00 0.00 73 1018.0
20260831203401 18 110 12.9 0.0 0.00 0.00 0.00 64 1018.0
20260831201859 18 110 12.9 0.0 0.00 0.00 0.00 64 1018.0
20260831200359 18 110 12.9 0.0 0.00 0.00 0.00 64 1018.0
20260831194857 18 110 12.9 0.0 0.00 0.00 0.00 64 1018.0
20260831193359 -17 0.0 0.0 0.00 0.00 0.00
20260831191900 -17 0.0 0.0 0.00 0.00 0.00
20260831190407 -17 0.0 0.0 0.00 0.00 0.00
20260831184857 21 120 14.5 0.0 0.00 0.00 0.00 43 1017.0
20260831183359 21 120 14.5 0.0 0.00 0.00 0.00 43 1017.0
20260831181901 21 120 14.5 0.0 0.00 0.00 0.00 43 1017.0
20260831180400 21 120 14.5 0.0 0.00 0.00 0.00 43 1017.0
20260831174900 25 130 14.5 0.0 0.00 0.00 0.00 34 1017.0